Find Starlink 30271

NORAD ID: 57669 Int'l Des: 2023-124 Owner: SPXS Country: US Constellation: starlink operational
LEOCIRCULAR

現在のビュー

3D地球を読み込み中...

About Starlink 30271

Starlink 30271 (NORAD 57669) is a starlink constellation satellite (v2 mini) launched Aug 22, 2023 by SPXS of US. It operates in LEO, CIRCULAR orbit with a mass of 730.00 kg.

Starlink 30271について

説明を読み込み中...

次回通過

Passes for default location (London). Set your location on the main map for personalized predictions.

高度履歴

Loading altitude history...

軌道要素

1 57669U 23124G 26170.94072938 .00000407 00000-0 24890-4 0 9991
2 57669 53.1616 91.5134 0001346 92.7372 267.3783 15.31710117159226
Epoch: Jun 19, 2026 • Age: 29 hours

現在のステータス

高度 490.1 km
速度 7.62 km/s
衛星直下点 -53.13°S, 20.94°E
打ち上げ日 Aug 22, 2023
運用期間 2.8 years
タイプ internet

技術仕様

分類 Payload
質量 730.00 kg
乾燥質量 700.00 kg
総質量 730.00 kg
長さ 0.30 m
直径 4.10 m
スパン 29.00 m
形状 Box + pan
製造者 SPXS
バスタイプ Starlink V2M
フェーズステータス In Orbit
所有者/国 SPXS/US

Most Searched